When you browse on this site, cookies collect data to enhance your experience and personalize the content and advertising you see.
Visit our Privacy Policy to learn more. By continuing to use the site, you agree to this use of cookies and data.
  • In France
  • List of Countries
  • For 7 days
  • Water Temperature
  • Satellite Maps
  • Weather Map
  • Weather Widgets
  • user-avatar
    Login

    Hourly Weather Sharan

    Today, 24 January, Thursday

    Time Temperature Precipitation Wind Pressure Humidity
    00:00 -8°C° 0 mm 2 mps 584 mmHg 69%
    01:00 -8°C° 0 mm 2 mps 584 mmHg 69%
    02:00 -8°C° 0 mm 2 mps 584 mmHg 69%
    03:00 -8°C° 0 mm 2 mps 584 mmHg 69%
    04:00 -9°C° 0 mm 2 mps 584 mmHg 69%
    05:00 -9°C° 0 mm 2 mps 584 mmHg 69%
    06:00 -9°C° 0 mm 2 mps 585 mmHg 68%
    07:00 -9°C° 0 mm 2 mps 585 mmHg 67%
    08:00 -10°C° 0 mm 2 mps 585 mmHg 66%
    09:00 -8°C° 0 mm 2 mps 585 mmHg 61%
    10:00 -7°C° 0 mm 2 mps 586 mmHg 56%
    11:00 -6°C° 0 mm 2 mps 586 mmHg 51%
    12:00 -5°C° 0 mm 2 mps 586 mmHg 49%
    13:00 -5°C° 0 mm 3 mps 585 mmHg 47%
    14:00 -4°C° 0 mm 3 mps 585 mmHg 45%
    15:00 -5°C° 0 mm 3 mps 585 mmHg 47%
    16:00 -5°C° 0 mm 3 mps 584 mmHg 48%
    17:00 -5°C° 0 mm 2 mps 584 mmHg 50%
    18:00 -6°C° 0 mm 2 mps 584 mmHg 53%
    19:00 -7°C° 0 mm 2 mps 584 mmHg 55%
    20:00 -8°C° 0 mm 2 mps 585 mmHg 58%
    21:00 -8°C° 0 mm 2 mps 585 mmHg 57%
    22:00 -9°C° 0 mm 2 mps 585 mmHg 55%
    23:00 -9°C° 0 mm 2 mps 585 mmHg 54%

    Tomorrow, 25 January, Friday

    Time Temperature Precipitation Wind Pressure Humidity
    00:00 -9°C° 0 mm 2 mps 584 mmHg 52%
    01:00 -9°C° 0 mm 2 mps 584 mmHg 50%
    02:00 -10°C° 0 mm 2 mps 584 mmHg 48%
    03:00 -10°C° 0 mm 2 mps 584 mmHg 48%
    04:00 -10°C° 0 mm 2 mps 583 mmHg 47%
    05:00 -12°C° 0 mm 2 mps 583 mmHg 47%
    06:00 -12°C° 0 mm 2 mps 583 mmHg 48%
    07:00 -12°C° 0 mm 2 mps 583 mmHg 48%
    08:00 -12°C° 0 mm 2 mps 584 mmHg 48%
    09:00 -9°C° 0 mm 2 mps 584 mmHg 45%
    10:00 -8°C° 0 mm 2 mps 584 mmHg 41%
    11:00 -6°C° 0 mm 2 mps 585 mmHg 38%
    12:00 -5°C° 0 mm 2 mps 584 mmHg 37%
    13:00 -4°C° 0 mm 2 mps 584 mmHg 35%
    14:00 -3°C° 0 mm 2 mps 584 mmHg 34%
    15:00 -4°C° 0 mm 2 mps 584 mmHg 36%
    16:00 -4°C° 0 mm 2 mps 584 mmHg 37%
    17:00 -2°C° 0 mm 1 mps 583 mmHg 39%
    18:00 -3°C° 0 mm 1 mps 584 mmHg 42%
    19:00 -4°C° 0 mm 1 mps 584 mmHg 45%
    20:00 -6°C° 0 mm 1 mps 584 mmHg 47%
    21:00 -6°C° 0 mm 1 mps 585 mmHg 48%
    22:00 -7°C° 0 mm 1 mps 585 mmHg 48%
    23:00 -7°C° 0 mm 1 mps 585 mmHg 49%

    Day after tomorrow, 26 January, Saturday

    Time Temperature Precipitation Wind Pressure Humidity
    00:00 -7°C° 0 mm 1 mps 585 mmHg 49%
    01:00 -7°C° 0 mm 1 mps 585 mmHg 50%
    02:00 -8°C° 0 mm 1 mps 584 mmHg 50%
    03:00 -9°C° 0 mm 2 mps 584 mmHg 50%
    04:00 -9°C° 0 mm 2 mps 584 mmHg 49%
    05:00 -9°C° 0 mm 2 mps 584 mmHg 49%
    06:00 -9°C° 0 mm 2 mps 584 mmHg 48%
    07:00 -9°C° 0 mm 2 mps 585 mmHg 47%
    08:00 -9°C° 0 mm 2 mps 585 mmHg 47%
    09:00 -6°C° 0 mm 1 mps 586 mmHg 42%
    10:00 -4°C° 0 mm 1 mps 586 mmHg 38%
    11:00 -2°C° 0 mm 1 mps 587 mmHg 34%
    12:00 -2°C° 0 mm 1 mps 587 mmHg 34%
    13:00 -1°C° 0 mm 1 mps 587 mmHg 33%
    14:00 0°C° 0 mm 1 mps 586 mmHg 33%
    15:00 -1°C° 0 mm 1 mps 586 mmHg 35%
    16:00 -1°C° 0 mm 1 mps 586 mmHg 37%
    17:00 -3°C° 0 mm 2 mps 586 mmHg 40%
    18:00 -2°C° 0 mm 1 mps 586 mmHg 43%
    19:00 -2°C° 0 mm 1 mps 586 mmHg 46%
    20:00 -3°C° 0 mm 1 mps 587 mmHg 48%
    21:00 -3°C° 0 mm 1 mps 587 mmHg 50%
    22:00 -4°C° 0 mm 1 mps 587 mmHg 51%
    23:00 -4°C° 0 mm 1 mps 587 mmHg 53%

    27 January, Sunday

    Time Temperature Precipitation Wind Pressure Humidity
    00:00 -4°C° 0 mm 1 mps 586 mmHg 54%
    01:00 -6°C° 0 mm 1 mps 586 mmHg 54%
    02:00 -7°C° 0 mm 2 mps 586 mmHg 55%
    03:00 -7°C° 0 mm 2 mps 586 mmHg 56%
    04:00 -7°C° 0 mm 2 mps 586 mmHg 56%
    05:00 -8°C° 0 mm 2 mps 586 mmHg 57%
    06:00 -8°C° 0 mm 2 mps 586 mmHg 57%
    07:00 -8°C° 0 mm 2 mps 586 mmHg 58%
    08:00 -8°C° 0 mm 2 mps 586 mmHg 58%
    09:00 -6°C° 0 mm 2 mps 587 mmHg 55%
    10:00 -5°C° 0 mm 2 mps 587 mmHg 51%
    11:00 -4°C° 0 mm 2 mps 588 mmHg 48%
    12:00 -3°C° 0 mm 2 mps 587 mmHg 46%
    13:00 0°C° 0 mm 1 mps 587 mmHg 44%
    14:00 +1°C° 0 mm 1 mps 586 mmHg 43%
    15:00 +1°C° 0 mm 1 mps 586 mmHg 44%
    16:00 0°C° 0 mm 1 mps 586 mmHg 45%
    17:00 0°C° 0 mm 1 mps 586 mmHg 46%
    18:00 -1°C° 0 mm 1 mps 586 mmHg 49%
    19:00 -2°C° 0 mm 1 mps 586 mmHg 51%
    20:00 -2°C° 0 mm 1 mps 587 mmHg 53%
    21:00 -3°C° 0 mm 1 mps 587 mmHg 53%
    22:00 -3°C° 0 mm 1 mps 587 mmHg 54%
    23:00 -3°C° 0 mm 1 mps 587 mmHg 54%

    28 January, Monday

    Time Temperature Precipitation Wind Pressure Humidity
    00:00 -3°C° 0 mm 1 mps 587 mmHg 56%
    01:00 -3°C° 0 mm 1 mps 587 mmHg 58%
    02:00 -4°C° 0 mm 1 mps 586 mmHg 59%
    03:00 -4°C° 0 mm 1 mps 586 mmHg 61%
    04:00 -4°C° 0 mm 1 mps 586 mmHg 62%
    05:00 -4°C° 0 mm 1 mps 586 mmHg 63%
    06:00 -4°C° 0 mm 1 mps 586 mmHg 62%
    07:00 -4°C° 0 mm 1 mps 586 mmHg 60%
    08:00 -4°C° 0 mm 1 mps 587 mmHg 58%
    09:00 -3°C° 0 mm 1 mps 587 mmHg 53%
    10:00 -1°C° 0 mm 1 mps 587 mmHg 47%
    11:00 0°C° 0 mm 1 mps 588 mmHg 41%
    12:00 +1°C° 0 mm 1 mps 587 mmHg 41%
    13:00 +2°C° 0 mm 1 mps 587 mmHg 41%
    14:00 +3°C° 0 mm 1 mps 586 mmHg 41%
    15:00 +3°C° 0 mm 1 mps 586 mmHg 41%
    16:00 +1°C° 0 mm 0 mps 586 mmHg 41%
    17:00 +1°C° 0 mm 0 mps 586 mmHg 41%
    18:00 0°C° 0 mm 0 mps 586 mmHg 42%
    19:00 0°C° 0 mm 1 mps 586 mmHg 43%
    20:00 0°C° 0 mm 1 mps 586 mmHg 44%
    21:00 0°C° 0 mm 1 mps 586 mmHg 44%
    22:00 -1°C° 0 mm 0 mps 586 mmHg 45%
    23:00 -1°C° 0 mm 0 mps 586 mmHg 46%

    29 January, Tuesday

    Time Temperature Precipitation Wind Pressure Humidity
    00:00 -1°C° 0 mm 0 mps 586 mmHg 48%
    01:00 0°C° 0 mm 1 mps 586 mmHg 50%
    02:00 0°C° 0 mm 1 mps 586 mmHg 51%
    03:00 0°C° 0 mm 1 mps 585 mmHg 54%
    04:00 -2°C° 0 mm 0 mps 585 mmHg 56%
    05:00 -2°C° 0 mm 0 mps 584 mmHg 58%
    06:00 -2°C° 0 mm 0 mps 584 mmHg 58%
    07:00 -2°C° 0 mm 0 mps 585 mmHg 58%
    08:00 -2°C° 0 mm 0 mps 585 mmHg 58%
    09:00 0°C° 0 mm 0 mps 585 mmHg 55%
    10:00 +1°C° 0 mm 0 mps 585 mmHg 52%
    11:00 +4°C° 0 mm 1 mps 586 mmHg 49%
    12:00 +5°C° 0 mm 1 mps 586 mmHg 49%
    13:00 +5°C° 0 mm 2 mps 585 mmHg 48%
    14:00 +6°C° 0 mm 2 mps 585 mmHg 48%
    15:00 +5°C° 0 mm 2 mps 585 mmHg 50%
    16:00 +6°C° 0 mm 1 mps 584 mmHg 53%
    17:00 +6°C° 0 mm 1 mps 584 mmHg 56%
    18:00 +5°C° 0.3 mm 1 mps 585 mmHg 61%
    19:00 +4°C° 0.3 mm 2 mps 585 mmHg 66%
    20:00 +3°C° 0.3 mm 2 mps 585 mmHg 70%
    21:00 +3°C° 0.6 mm 2 mps 585 mmHg 75%
    22:00 +3°C° 0.6 mm 2 mps 585 mmHg 79%
    23:00 +3°C° 0.6 mm 2 mps 585 mmHg 83%
    Show more